Regional Weather Roundup
Issued by NWS Wakefield, VA

Home | Current Version | Previous Version | Text Only | Print | Product List | Glossary Off
Versions: 1 2 3 4 5 6 7 8 9 10 11 12 13 14 15 16 17 18 19 20 21 22 23 24 25 26 27 28 29 30 31 32 33 34 35 36 37 38 39 40 41 42 43 44 45 46 47 48 49 50

955
ASUS41 KAKQ 202315
RWRAKQ

REGIONAL WEATHER ROUNDUP
NATIONAL WEATHER SERVICE WAKEFIELD VA
600 PM EST SAT JAN 20 2018

Note: "fair" indicates few or no clouds below 12,000 feet with no
significant weather and/or obstructions to visibility. * = Denotes
station may not report precipitation (e.g., rain,snow,etc.),
thunder or fog.

VAZ042-051-052>054-056-210000-
NORTHERN VIRGINIA

CITY           SKY/WX    TMP DP  RH WIND       PRES   REMARKS
WASH NATIONAL  MOCLDY    50  32  50 S6        30.01S
DULLES         FAIR      50  33  52 S3        30.01R
FORT BELVOIR   FAIR      52  31  45 CALM        N/A
QUANTICO       NOT AVBL
FREDERICKSBRG* FAIR      52  34  49 S5        30.02R
STAFFORD*      FAIR      57  32  39 S3        30.06R
WARRENTON      FAIR      49  26  41 CALM      30.01R
CULPEPER*      FAIR      47  28  46 CALM      30.02R
MANASSAS*      FAIR      44  31  60 SE3       30.02R
LEESBURG*      FAIR      54  32  43 SW3       30.02R
WINCHESTER     FAIR      46  28  49 W3        30.03R
FRONT ROYAL*   FAIR      57  32  38 SE5       30.00R
LURAY*         FAIR      54  32  43 SW5       30.02R
$$

VAZ048-049-060>072-079>083-210000-
CENTRAL AND SOUTH CENTRAL VIRGINIA

CITY           SKY/WX    TMP DP  RH WIND       PRES   REMARKS
RICHMOND       MOCLDY    49  33  54 S6        30.06R
CHESTERFIELD*  NOT AVBL
PETERSBURG*    FAIR      52  34  50 S3        30.08R
HANOVER        FAIR      51  35  54 CALM      30.06R
TAPPAHANNOCK*  FAIR      54  33  45 S5        30.05R
QUINTON*       FAIR      52  33  48 S10       30.06R
CHARLOTTSVILLE FAIR      59  30  33 S5        30.03R
GORDONSVILLE*  FAIR      56  32  39 SW5       30.02R
ORANGE*        FAIR      52  30  43 CALM      30.02S
LOUISA*        FAIR      55  31  41 SW7       30.07R
BUMPASS*       FAIR      54  31  42 CALM      30.04R
FARMVILLE*     FAIR      51  37  58 SW3       30.06R
CREWE*         FAIR      53  36  51 SW5       30.08R
FORT PICKETT*  FAIR      49  34  56 SW7       30.08R
CHASE CITY*    FAIR      49  35  58 CALM      30.10R
CLARKSVILLE*   FAIR      50  34  53 S7        30.10R
SOUTH HILL*    FAIR      49  36  60 SW6       30.16R
LAWRENCEVILLE* FAIR      50  34  54 CALM      30.10R
EMPORIA*       FAIR      46  32  57 CALM      30.12R
$$

VAZ088>098-210000-
SOUTHEAST VIRGINIA

CITY           SKY/WX    TMP DP  RH WIND       PRES   REMARKS
NORFOLK        FAIR      57  32  38 SW9       30.06R
VIRGINIA BEACH FAIR      51  29  42 SW8       30.07R
NORFOLK NAVAL  FAIR      56  32  40 SW10      30.08R
WEST POINT*    FAIR      51  32  48 SW5       30.07R
SALUDA*        FAIR      51  33  50 CALM      30.05R
NEWPORT NEWS   FAIR      53  33  46 W10       30.06R
LANGLEY AFB    FAIR      52  33  49 SW7       30.06R
FORT EUSTIS    FAIR      53  33  47 SW3       30.04R
WILLIAMSBURG*  FAIR      55  36  47 CALM      30.07R
HR EXEC AP*    FAIR      52  33  48 W7        30.09R
FRANKLIN*      FAIR      54  32  44 W3        30.10R
US460-WAKEFLD  FAIR      51  35  54 SW5       30.08R
$$

VAZ020-022-025-037-045-210000-
WEST CENTRAL AND SOUTHWEST VIRGINIA

CITY           SKY/WX    TMP DP  RH WIND       PRES   REMARKS
STAUNTON*      FAIR      51  32  48 S7        30.07R
WAYNESBORO*    FAIR      53  32  45 SW6       30.05R
HOT SPRINGS VA FAIR      42  32  67 W25G31    30.07R
LYNCHBURG      FAIR      52  35  52 CALM      30.09R
DANVILLE       FAIR      51  38  60 W10       30.12R
SOUTH BOSTON*  FAIR      52  34  50 S5        30.11R
MARTINSVILLE   FAIR      54  37  53 W6        30.17R
ROANOKE        MOCLDY    54  37  52 W9        30.12R
BLACKSBURG     FAIR      51  38  63 W13G20    30.16R
DUBLIN*        FAIR      50  39  65 W9        30.16R
MARION*        CLOUDY    46  34  62 W12       30.20R
HILLSVILLE*    FAIR      45  37  72 NW8       30.15R
RICHLANDS*     CLOUDY    45  34  66 SW6       30.17S
WISE*          CLOUDY    43  34  70 SW7       30.18S
ABINGDON*      CLOUDY    47  35  63 CALM      30.20R
$$

MDZ021>025-VAZ099-100-210000-
SOUTHERN MARYLAND AND THE DELMARVA PENINSULA

CITY           SKY/WX    TMP DP  RH WIND       PRES   REMARKS
PATUXENT RIVER MOCLDY    36  30  79 CALM      30.02R
BAY BRIDGE APT FAIR      43  28  56 SE6       30.01R
LEONARDTOWN    FAIR      50  32  50 CALM      30.04R
DOVER          FAIR      45  29  53 S6        30.00R
GEORGETOWN     FAIR      46  23  40 SW5       30.03R
EASTON         PTCLDY    50  27  40 S5        30.05R
CAMBRIDGE        N/A     43  27  52 SE6       30.03R
SALISBURY      FAIR      40  27  59 S3        30.03R
OCEAN CITY     FAIR      45  28  51 W6        30.04R
WALLOPS ISLAND FAIR      43  31  62 CALM      30.05R
ACCOMACK*      FAIR      44  31  58 SW5       30.04R
$$

NCZ012>017-030>032-210000-
NORTH CENTRAL AND EASTERN NORTH CAROLINA

CITY           SKY/WX    TMP DP  RH WIND       PRES   REMARKS
ROANOKE RAPIDS FAIR      46  32  57 SW5       30.11S
RALEIGH        FAIR      47  33  58 SW6       30.15R
ELIZABETH CITY FAIR      48  36  63 SW9       30.10R
AHOSKIE*       FAIR      47  32  55 CALM      30.12R
EDENTON*       FAIR      56  26  31 W8        30.12R
CURRITUCK*     FAIR      52  31  44 SW7       30.10R
KILL DEVIL HLS NOT AVBL
MANTEO         FAIR      45  32  61 S7        30.11R
CAPE HATTERAS  FAIR      54  42  64 SW15G23   30.14R
TARBORO*       NOT AVBL
GOLDSBORO      FAIR      51  24  35 W3        30.13S
WASHINGTON     FAIR      51  24  35 W7        30.14R
GREENVILLE     FAIR      52  23  32 W5        30.16R
NEW BERN       FAIR      51  30  44 SW5       30.15R
WILMINGTON     FAIR      52  23  32 SW7       30.17S
$$

VAZ048-210000-
ELSEWHERE

CITY           SKY/WX    TMP DP  RH WIND       PRES   REMARKS
HARRISBURG PA  MOCLDY    39  31  72 CALM      30.00R
BALTIMORE      MOCLDY    52  31  44 SW6       30.00R
ANNAPOLIS      FAIR      39  32  76 SE5       30.01R
ANDREWS AFB    FAIR      49  30  47 SW6       30.00R
PHILADELPHIA   MOCLDY    50  29  44 W7        30.00R
HENDERSON NC   FAIR      47  32  55 SW10      30.12R
GREENSBORO     FAIR      51  35  54 W6        30.14R
ROCKY MOUNT    NOT AVBL
$$

VAZ100-210000-
MARINE

STATION/POSITION TIME  TEMP    WIND        PRES    WAVE   SWELL
                       AIR SEA DIR/SP/G            HT/PER HT/PER
                 (UTC) (F)     (DEG/KT/KT) (MB)    (FT/S) (FT/S)
BRANDYWINE LGT   2248   54     240/ 14/ 16 1016.5R
CAPE MAY NJ      2248   39 33  250/  5/  6 1015.8R
LEWES DE         2248   50 34  230/  4/  6 1016.3R
15NM E FENWICK I 2250   43 40  230/ 12/ 14 1017.3R   3/ 6   2/ 6
OCEAN-CITY-INLET 2248   42 37  250/  2/  3 1017.4R
WACHAPREAGUE VA  2248   42 38  220/  2/  4 1017.5R
THOMAS POINT MD  2300   41 33  190/ 12/ 12   N/A
GOOSES REEF MD   2300   38 33  200/  8/ 10 1017.0    1/ 2
COVE POINT MD    2248   39     170/  7/  8 1017.3R
SOLOMONS ISLAND  2248   44 35   90/  3/  3 1016.4R
BISHOPS HEAD MD  2248   38 36  170/  8/ 10 1017.2R
PINEY POINT MD   2242          150/  1/  2   N/A
POTOMAC MD       2300   39 34  260/  4/  4 1016.5    0
CAMBRIDGE MD     2248   46 33              1017.4R
LEWISETTA VA     2248   44 33  260/  3/  5 1017.0R
RAPPAHANNOCK LGT 2248          200/  9/  9 1018.1R
STINGRAY PT      2300   47 34  250/  6/  8 1020.8    0
YORK RVR RNG VA  2248   55     260/  9/  9 1018.2R
YORKTOWN VA      2248   56 36  240/  5/  7 1017.4R
DOMINION TERM VA 2248   48     250/ 12/ 13 1018.3R
KIPTOPEKE VA     2248      36  220/  3/  4   N/A
CAPE HENRY VA    2248   57     240/  8/ 12   N/A
WILLOUBY STN VA  2248          230/ 16/ 17 1017.9R
S CRANEY ISL VA  2248   56     250/  8/ 10 1018.0R
CAPE HENRY BUOY  2230      38                N/A     2/11
1ST LANDING BUOY 2300   46 35  260/  8/ 10 1018.2    1
CAPE CHARLES BUO 2251      39                N/A     2/10
64NM E OF VA BCH 2250   53 49  230/ 16/ 17 1018.6R   4/ 5   2/11
DUCK PIER NC     2248   48 40  250/  7/  9 1018.6R
44100 DUCK FRF   2245      41                N/A     2/10   2/11
44056 DUCK FRF   2230      40                N/A     1/13   2/13
OREGON INLET NC  2242   45 40  210/ 16/ 18 1019.4R
HATTERAS NC      2248   54 49  230/ 13/ 19 1020.4R
DIAMOND SHLS NC  2300   62 69  240/ 23/ 27 1021.1
CAPE LOOKOUT NC  2300          230/ 10/ 15 1021.6S
$$




USA.gov is the U.S. government's official web portal to all federal, state and local government web resources and services.